Wetbulb
67.54 67.17 68.09 69.37 72.33 72.95 74.17 74.94 75.66 76.04 77.73 78.18 79.19 78.79 78.24 78.49 78.18 78.53 78.81 79.09 77.85 77.71 75.98 76.40 77.57 79.40 79.42 79.01 79.29 79.02 79.79 78.70 77.12
69.01 65.55 67.46 68.07 72.25 74.09 75.02 75.22 76.00 76.39 77.95 78.12 78.50 79.09 79.35 78.95 79.14 78.46 78.20 79.40 80.06 78.11 80.21 78.21 79.41 79.27 79.36 79.59 79.11 79.37 79.53 77.10 77.02
70.92 69.51 68.15 67.14 71.62 72.79 74.37 74.85 75.51 76.82 78.12 77.98 78.27 78.33 79.13 79.35 79.20 79.50 79.20 79.56 79.87 79.99 79.20 79.83 80.80 81.21 80.57 79.86 79.98 80.03 79.53 77.29 77.86
71.37 72.38 72.26 72.04 71.65 73.58 73.90 74.33 75.47 75.72 76.02 76.93 77.59 77.89 78.46 78.43 78.77 79.10 79.81 79.16 79.14 80.43 79.54 80.77 81.62 80.82 80.34 79.87 79.59 79.10 79.54 78.75 78.33
70.35 72.68 73.65 74.25 74.22 75.23 77.10 78.37 78.51 77.34 76.80 76.08 77.44 80.05 79.62 79.39 79.32 79.63 78.59 78.27 79.00 79.83 79.87 80.57 80.84 80.80 80.73 78.87 79.05 80.00 79.05 78.25 77.75
70.45 71.20 72.11 73.33 74.37 75.25 76.96 77.78 79.79 78.49 78.82 78.62 77.74 79.71 78.10 78.63 78.35 78.33 79.22 77.90 77.80 77.74 78.12 79.97 78.18 79.38 79.16 78.79 79.19 79.35 78.93 78.19 78.16
69.16 71.18 71.68 72.34 73.21 74.27 77.76 78.13 79.19 79.83 77.48 79.39 78.32 77.63 76.79 77.56 77.20 77.05 77.27 76.84 77.26 76.45 74.28 67.57 65.25 66.19 79.28 77.92 78.38 78.25 76.26 75.17 76.19
65.94 69.57 70.34 71.26 73.41 75.22 76.19 77.08 77.79 79.33 78.66 79.78 81.07 81.18 79.33 79.19 79.82 79.19 77.21 75.40 75.85 76.57 79.99 76.46 72.55 72.22 72.01 71.94 71.49 67.21 67.18 68.45 66.93
66.57 67.91 69.18 71.04 72.48 73.47 74.37 75.69 77.63 78.43 78.91 79.03 79.65 79.68 78.95 82.03 78.86 78.72 77.52 79.40 80.75 82.61 76.88 74.48 73.43 71.88 71.02 69.45 68.05 64.63 65.84 66.75 68.64
66.61 67.93 69.20 70.46 71.84 72.84 74.44 75.26 77.57 76.89 78.51 79.75 80.61 81.11 81.46 81.48 81.64 79.19 79.58 80.03 76.95 75.95 71.70 71.12 69.38 70.00 69.88 66.51 66.56 63.28 65.26 67.36 68.12
66.45 67.72 69.66 70.59 71.12 73.19 74.68 74.47 74.72 77.28 77.42 80.52 81.37 80.55 80.82 79.14 80.15 79.50 76.81 75.29 75.70 75.16 72.96 71.62 69.99 68.99 70.76 68.37 67.22 62.50 63.71 64.54 65.92
67.85 68.91 69.77 70.39 71.73 72.84 75.08 74.75 76.58 77.12 77.26 78.04 78.64 78.90 79.78 80.37 80.06 79.74 78.14 76.00 75.46 76.42 73.08 71.14 70.06 70.24 70.42 70.01 67.82 60.39 62.83 62.98 64.27
67.62 68.14 68.58 69.05 70.66 71.02 70.44 71.70 73.26 75.25 74.97 76.76 76.71 78.27 79.35 79.77 79.68 79.70 78.89 77.88 77.78 78.29 74.61 73.60 70.43 69.42 71.02 68.69 70.82 64.60 60.29 63.21 66.67
67.49 67.57 67.17 68.12 68.63 68.70 69.17 69.99 69.57 71.62 73.03 73.59 74.24 75.26 76.75 77.50 77.03 77.99 79.17 78.71 79.62 79.26 77.98 76.12 75.96 75.90 76.72 75.97 72.47 71.14 63.37 62.16 65.38
65.81 65.76 66.01 65.81 66.20 66.68 67.37 68.69 69.52 69.98 71.15 72.91 73.24 73.17 73.22 73.78 75.22 76.06 74.30 77.52 76.10 76.78 76.39 75.77 75.65 75.62 75.04 74.07 75.06 67.73 63.93 61.23 63.12
64.65 64.53 65.14 65.66 65.70 66.55 67.66 69.49 69.73 68.52 70.59 71.74 71.81 71.51 71.15 71.34 72.15 72.48 73.68 75.62 74.89 75.40 75.02 73.85 72.54 71.95 72.38 71.95 73.35 73.25 64.45 62.01 61.05
64.53 65.01 65.19 65.67 67.08 67.47 68.13 69.65 69.80 69.91 70.59 71.52 71.04 69.89 70.00 70.39 70.12 69.71 70.73 70.90 71.77 73.89 72.23 71.96 71.69 71.30 70.23 69.92 70.80 72.33 71.72 69.41 67.57
64.51 65.63 65.77 66.72 67.05 66.99 67.19 68.46 68.94 69.18 69.77 70.31 68.67 68.53 68.40 68.48 68.71 68.48 68.14 68.83 68.56 68.54 71.00 70.76 70.62 70.43 70.54 70.23 69.51 69.15 62.99 67.53 71.74
66.39 66.51 67.55 67.17 66.86 66.55 67.01 67.19 67.19 68.19 68.49 68.12 67.00 66.39 66.16 66.25 66.81 66.96 67.15 66.95 67.40 60.29 59.01 58.01 56.78 55.10 58.52 68.44 60.48 54.03 52.01 50.38 51.28
65.25 66.47 66.96 66.84 66.98 66.87 66.23 66.03 66.12 67.00 67.79 67.12 66.23 64.79 64.93 65.24 63.83 66.16 66.45 66.35 65.20 63.92 63.77 54.33 52.66 52.74 52.31 51.44 56.41 51.97 49.47 48.38 49.65
MSLP
1000.52 1000.32 1000.46 1001.30 1002.73 1003.94 1005.33 1006.53 1007.76 1008.77 1010.20 1011.31 1012.13 1012.96 1013.57 1014.01 1014.39 1014.42 1014.54 1014.57 1014.59 1014.63 1014.80 1014.55 1014.39 1015.14 1015.46 1015.95 1016.19 1016.62 1016.77 1017.42 1017.64
1001.52 1000.76 1000.12 1000.88 1001.79 1003.50 1004.66 1005.86 1006.99 1008.10 1009.27 1010.49 1011.25 1012.05 1012.86 1013.40 1013.79 1014.15 1014.00 1014.13 1014.11 1014.25 1014.26 1014.17 1014.28 1014.58 1015.03 1015.33 1015.65 1015.92 1016.55 1016.82 1017.11
1002.52 1001.99 1001.32 1000.98 1001.84 1003.14 1004.29 1005.28 1006.49 1007.68 1008.69 1009.83 1010.63 1011.17 1011.86 1012.44 1012.96 1013.37 1013.71 1013.97 1013.78 1013.70 1013.76 1013.71 1013.87 1014.35 1014.60 1014.85 1015.10 1015.48 1016.01 1016.33 1016.51
1003.81 1003.39 1003.02 1002.78 1002.75 1003.28 1004.43 1005.25 1005.94 1007.55 1008.74 1009.45 1009.93 1010.32 1010.77 1011.42 1012.07 1012.66 1013.01 1013.15 1013.31 1013.32 1013.55 1013.92 1013.88 1014.49 1014.76 1014.79 1014.91 1015.09 1015.41 1015.82 1016.04
1004.61 1004.65 1004.64 1004.54 1004.52 1005.35 1005.41 1005.84 1006.18 1007.14 1008.35 1009.40 1009.42 1009.64 1010.13 1010.56 1011.24 1011.72 1011.98 1012.47 1012.58 1012.99 1013.56 1013.90 1014.32 1014.53 1014.75 1015.06 1014.95 1014.82 1015.02 1015.40 1015.59
1004.80 1005.17 1005.27 1005.42 1005.94 1006.48 1006.69 1006.93 1007.42 1007.63 1008.24 1008.69 1009.01 1009.56 1009.98 1010.21 1010.62 1011.18 1011.71 1012.27 1012.68 1013.09 1013.14 1013.15 1014.20 1013.82 1014.02 1014.77 1014.51 1014.68 1014.51 1014.96 1015.00
1004.94 1005.34 1005.85 1005.45 1006.03 1006.81 1007.54 1007.95 1008.42 1008.42 1008.51 1009.18 1009.18 1009.55 1009.99 1010.18 1010.60 1010.96 1011.52 1012.07 1012.54 1012.91 1012.98 1013.53 1014.35 1014.14 1013.80 1014.57 1014.71 1014.63 1014.67 1015.20 1014.91
1005.31 1005.18 1005.65 1006.39 1006.82 1007.65 1008.35 1008.70 1009.00 1009.00 1009.10 1009.70 1009.47 1009.55 1009.62 1009.93 1010.26 1010.73 1011.32 1011.84 1012.34 1012.97 1012.72 1012.84 1013.99 1013.52 1013.98 1014.29 1014.31 1014.35 1014.79 1015.22 1015.52
1005.99 1006.05 1006.21 1006.71 1007.31 1007.96 1008.46 1008.90 1009.22 1009.27 1009.50 1009.79 1009.92 1010.20 1010.17 1010.01 1010.34 1010.61 1010.99 1011.36 1011.81 1012.07 1012.86 1012.94 1013.26 1013.59 1014.03 1014.50 1014.17 1013.67 1013.47 1013.90 1014.61
1006.71 1006.97 1007.15 1007.06 1007.20 1007.75 1008.18 1008.86 1009.20 1009.53 1009.67 1009.79 1009.96 1010.09 1010.11 1010.29 1010.43 1010.55 1010.76 1011.13 1011.98 1012.36 1013.04 1013.47 1013.58 1013.29 1013.37 1013.63 1013.30 1012.76 1012.53 1011.41 1012.83
1007.04 1007.69 1007.82 1007.71 1007.41 1007.76 1008.17 1008.46 1008.89 1009.36 1009.60 1009.94 1010.05 1010.07 1010.18 1010.40 1010.43 1010.73 1011.11 1011.76 1012.19 1012.24 1012.86 1013.04 1013.15 1012.88 1012.88 1013.21 1012.68 1011.78 1011.61 1011.20 1011.08
1007.46 1008.18 1008.56 1008.47 1008.19 1008.78 1009.14 1009.08 1009.00 1009.35 1009.82 1010.03 1009.96 1010.06 1010.10 1010.35 1010.58 1010.87 1010.77 1011.50 1011.74 1011.89 1012.32 1012.65 1012.52 1012.48 1012.47 1012.59 1012.11 1010.98 1011.10 1011.72 1012.41
1008.30 1008.95 1009.34 1009.20 1009.14 1009.47 1009.80 1010.10 1009.88 1009.85 1009.91 1009.99 1010.07 1010.18 1010.25 1010.22 1010.33 1010.33 1010.59 1010.86 1011.02 1011.14 1011.59 1011.70 1011.85 1011.92 1011.82 1011.79 1011.90 1011.51 1011.23 1011.64 1013.19
1008.78 1009.26 1009.77 1009.75 1009.73 1009.93 1010.27 1010.58 1010.70 1010.67 1010.62 1010.54 1010.75 1010.79 1010.77 1010.66 1010.66 1010.50 1010.31 1010.53 1010.48 1010.44 1010.61 1010.77 1010.82 1010.96 1010.84 1010.95 1011.12 1011.22 1010.98 1011.19 1012.30
1008.94 1009.43 1009.85 1010.04 1010.26 1010.50 1010.68 1010.80 1010.99 1011.04 1011.06 1011.09 1011.12 1011.14 1011.07 1010.96 1010.77 1010.47 1010.17 1010.17 1010.17 1010.10 1010.11 1010.22 1010.16 1010.11 1010.11 1009.95 1009.86 1009.99 1010.42 1010.70 1010.84
1009.16 1009.70 1010.05 1010.33 1010.58 1010.77 1010.95 1011.04 1011.17 1011.22 1011.25 1011.25 1011.27 1011.31 1011.25 1011.10 1010.85 1010.61 1010.41 1010.06 1009.90 1009.73 1009.70 1009.66 1009.62 1009.46 1009.36 1009.16 1008.80 1008.85 1009.15 1009.65 1009.86
1009.52 1010.08 1010.39 1010.61 1010.82 1010.96 1011.14 1011.29 1011.31 1011.28 1011.23 1011.20 1011.15 1011.16 1011.18 1011.04 1010.81 1010.49 1010.21 1009.89 1009.55 1009.01 1008.85 1008.59 1008.53 1008.44 1008.33 1008.07 1007.90 1007.76 1008.20 1008.93 1009.15
1010.04 1010.38 1010.65 1010.83 1011.00 1011.13 1011.24 1011.35 1011.29 1011.16 1011.04 1010.96 1010.92 1010.86 1010.77 1010.57 1010.28 1009.92 1009.56 1009.19 1008.82 1008.52 1008.12 1007.75 1007.89 1007.70 1007.49 1007.19 1007.12 1007.14 1007.25 1007.45 1007.65
1010.36 1010.61 1010.76 1010.91 1011.04 1011.08 1011.03 1011.01 1011.00 1010.99 1010.95 1010.90 1010.79 1010.57 1010.28 1009.86 1009.37 1008.87 1008.40 1008.01 1007.53 1007.19 1007.13 1006.90 1006.84 1007.00 1007.43 1007.12 1007.24 1007.11 1007.22 1007.65 1007.92
1010.07 1010.33 1010.43 1010.51 1010.61 1010.65 1010.68 1010.66 1010.59 1010.54 1010.52 1010.45 1010.36 1010.22 1009.98 1009.61 1009.14 1008.46 1007.88 1007.44 1007.02 1006.70 1006.33 1005.98 1005.94 1006.12 1006.20 1006.44 1006.51 1006.84 1006.80 1007.13 1007.61
Wind_Speed
9 11 16 20 21 20 19 17 18 17 19 16 16 15 14 12 12 8 8 7 7 4 5 8 5 10 8 8 7 9 6 4 6
13 12 4 8 20 15 17 16 15 15 16 17 16 15 12 12 11 12 9 9 8 8 6 5 8 10 10 10 9 7 7 6 8
10 8 9 5 17 16 13 16 17 14 13 16 14 13 14 11 12 11 11 9 8 7 9 8 5 4 4 6 7 7 7 7 8
9 11 12 11 6 11 12 10 13 14 8 6 12 13 11 13 12 11 11 11 10 8 8 6 5 5 5 6 7 7 6 8 8
9 6 4 7 8 8 6 2 4 9 12 13 12 8 9 9 10 10 13 12 10 9 8 6 6 6 6 9 8 7 8 10 10
9 5 5 7 8 5 4 7 6 5 4 5 9 7 7 7 9 9 5 5 5 4 6 6 9 9 8 11 9 8 8 10 11
5 8 2 4 10 8 5 3 1 1 3 2 3 9 9 9 9 10 9 7 7 5 6 9 13 30 5 5 6 7 9 12 14
10 8 6 3 9 6 2 3 3 4 5 4 2 2 4 5 5 6 7 8 8 8 4 5 8 5 6 2 6 6 4 5 10
7 7 4 5 3 6 6 6 5 3 4 4 4 2 5 2 8 8 10 5 4 3 7 5 4 5 6 4 4 7 10 6 3
4 5 6 6 7 7 8 6 4 5 3 3 2 2 2 3 4 6 5 1 2 8 5 5 5 6 7 6 4 4 12 13 7
6 2 3 3 7 8 4 6 8 4 3 3 1 3 3 1 3 4 5 1 1 2 6 6 4 6 4 4 4 9 17 20 7
7 6 3 4 7 8 8 10 5 5 3 4 3 1 2 6 6 5 7 5 6 5 5 6 5 4 5 4 3 7 18 17 13
8 8 4 3 4 6 7 7 9 6 3 4 4 2 2 3 3 2 4 8 9 7 7 6 6 7 6 7 7 10 5 6 7
6 5 6 3 3 4 4 4 7 6 5 7 7 8 8 6 6 8 4 5 4 5 6 7 7 8 8 9 10 11 19 16 10
4 4 5 2 1 3 5 5 5 6 5 6 6 7 8 8 8 7 8 6 7 7 6 7 8 8 7 8 9 11 14 17 15
3 1 2 3 3 4 4 4 5 6 6 6 6 7 8 9 10 9 10 9 9 7 8 8 8 9 9 9 8 8 17 15 16
3 4 5 6 6 5 5 5 6 7 7 7 8 8 9 9 10 11 10 9 10 10 11 10 10 10 10 9 8 6 7 8 7
5 6 7 7 6 7 7 8 8 8 8 8 9 9 10 11 10 11 11 11 10 11 12 11 12 11 10 9 10 8 2 9 8
5 6 6 7 8 9 10 9 9 8 8 8 10 11 9 10 10 10 10 10 10 17 21 21 21 20 12 12 2 8 10 9 8
6 6 8 9 9 9 10 10 10 9 8 10 10 11 12 10 11 11 10 11 12 13 13 17 21 24 20 17 19 12 12 13 12
Wind_Direction
346 262 199 184 176 186 182 184 180 185 169 181 185 198 203 207 220 229 212 230 243 198 221 228 232 182 189 209 207 209 212 220 231
353 346 93 208 165 174 170 176 178 180 169 180 187 194 202 208 204 221 227 230 215 228 250 268 168 173 190 190 208 216 199 211 231
14 10 2 195 157 170 174 179 178 179 171 178 187 201 193 206 208 208 219 254 241 232 222 216 236 204 203 199 203 201 209 223 234
28 11 30 27 81 156 157 193 180 143 155 184 190 199 206 195 194 205 207 224 234 234 236 263 194 209 227 226 223 227 221 232 239
75 55 52 41 64 60 48 108 156 134 170 205 212 183 193 190 189 195 204 213 219 215 221 228 243 242 241 236 238 238 229 244 242
106 89 100 119 93 80 49 76 47 85 142 224 209 165 212 214 185 204 202 214 248 273 228 215 268 228 217 243 237 235 239 246 251
104 115 299 136 134 126 113 141 66 86 129 241 241 165 206 206 216 201 212 235 239 223 155 113 9 286 258 288 297 296 315 317 280
317 114 126 77 92 104 81 92 166 253 157 201 42 5 197 169 185 223 214 224 218 236 288 54 136 142 92 108 98 77 44 341 339
352 7 30 131 109 151 173 152 186 219 91 140 169 202 291 243 182 205 219 202 247 342 65 94 111 130 140 147 114 137 117 114 359
87 357 360 351 174 174 161 167 165 186 189 196 174 159 209 206 237 194 219 105 53 114 143 157 186 178 173 153 172 167 77 81 64
93 61 358 22 8 61 81 199 188 122 156 180 227 222 115 120 198 164 105 207 130 131 174 205 202 230 210 149 196 109 69 41 65
112 91 61 14 48 65 32 8 26 141 207 324 279 291 23 158 179 200 174 204 223 182 195 214 217 217 189 216 266 124 131 96 36
121 102 55 36 63 63 53 357 4 10 320 259 228 277 7 348 310 285 234 220 213 203 188 207 209 241 235 223 239 266 257 131 166
106 114 111 59 17 77 39 22 3 342 359 344 16 4 352 339 323 318 256 286 278 234 212 228 224 234 244 241 215 223 233 234 227
130 129 117 61 62 1 339 348 339 325 324 349 346 336 325 316 308 291 282 251 245 243 242 243 249 249 250 252 249 228 189 189 206
143 108 28 329 326 318 299 315 313 291 293 303 307 301 292 292 295 295 299 279 252 250 233 239 240 236 231 242 251 240 205 199 197
10 334 323 322 317 312 314 306 303 299 298 289 277 273 275 277 278 280 281 280 284 251 245 241 234 232 237 243 241 234 186 205 206
310 317 315 319 319 308 304 300 290 287 290 297 294 289 286 281 272 263 264 260 262 259 270 256 245 248 246 243 238 232 45 197 193
307 293 295 301 297 290 289 294 298 307 308 304 299 294 284 280 282 277 269 264 262 239 237 248 258 258 247 272 187 151 121 102 93
265 269 276 280 288 290 289 287 283 279 280 282 282 284 283 284 282 280 288 279 258 256 262 239 240 252 258 241 259 187 163 156 151